Location: Vihti�l�
(61.3833°N, 23.0667°E)
Time: 03:23:10
(UTC+00:00)

Cosmos 2227 - Pass Details

Date: 29 November 2020
Orbit: 833 x 862 km, 71.0° (Epoch: 19 January)

Event Time Altitude Azimuth Distance (km) Brightness Sun altitude
Exits shadow 04:02:15 23° 226° (SW) 1,694 5.4 -20.4°
Maximum altitude 04:05:50 83° 312° (NW) 849 4.1 -20.0°
Drops below altitude 10° 04:11:30 10° 42° (NE) 2,461 7.0 -19.4°
Sets 04:13:57 0° 44° (NE) 3,401 7.8 -19.1°
